STARLINK-1624 (46130 NORAD) Tracking and Keplerian Element Data

This shows tracking and keplerian element data for the satellite.

Feedback or suggestion? Click here.




ElementValue
Catalog46130
NameSTARLINK-1624
Epoch Orbit187
Epoch Day336.91667824
Epoch Year2020
RAAN284.2428
Inclination53.0003
Eccentricity0.0003787
Argument of Perigee5.526
Mean Anonmoly245.906
Mean Motion15.62778685
Decay Rate-0.00035548
L11 46130U 20057P 20336.91667824 -.00035548 00000-0 -38351-3 0 9995
L22 46130 53.0003 284.2428 0003787 5.5260 245.9060 15.62778685 1877

Live tracking and technical data element details for STARLINK-1624 (NORAD 46130). STARLINK-1624 can be tracked NOW for your location showing map with azimuth and elevation plus other details from your city location.

Track the satellite on the map from your city or location and see movement details for azimuth, elevation, latitude, longitude, range, height, and movement on the map or in text.







IsCatalogInMostPopularTable: catalog: 46130, numindb: 19
Update: records affected: 1



GetName: 46130 STARLINK-1624

Hit Count: updated at: Wed, 02 Dec 2020 18:43:07 GMT